Location: ?????????
(48.5008°N, 37.9680°E)
Time: 07:40:08
(UTC+00:00)

Daily predictions for brighter satellites

Satellite Brightness Start Highest point End
(mag) Time Altitude Azimuth Time Altitude Azimuth Time Altitude Azimuth
Cosmos 2227 4.3 14:35:13 10° S 14:40:44 60° ESE 14:46:20 10° NE
Cosmos 1503 Rocket 4.1 14:35:58 10° S 14:41:17 68° ESE 14:46:38 10° NNE
ATLAS 2AS CENTAUR R/B 3.3 14:33:20 10° SW 14:41:17 73° NW 14:49:06 10° NE
Cosmos 1674 3.3 14:38:22 10° SSW 14:42:10 61° WNW 14:45:59 10° N
Cosmos 1315 Rocket 2.9 14:40:01 10° N 14:43:54 51° ENE 14:47:49 10° SSE
Cosmos 2227 Rocket 3.8 14:39:01 10° WSW 14:43:56 30° NW 14:48:54 10° NNE
Cosmos 1536 Rocket 3.8 14:41:51 10° SSW 14:46:14 79° W 14:50:41 10° N
CZ-4 R/B 2.9 14:43:47 10° ESE 14:46:25 17° ENE 14:49:01 10° NNE
Cosmos 1634 Rocket 4.0 14:40:36 10° N 14:46:52 76° E 14:53:09 10° SSE
COSMO-SKYMED 1 3.8 14:44:15 10° NE 14:47:43 23° E 14:51:09 10° SE
TIMED 4.5 14:45:32 10° NNW 14:49:56 80° ENE 14:54:18 10° SSE
Cosmos 1844 Rocket 4.1 14:48:15 10° SE 14:51:57 18° E 14:55:38 10° ENE
CZ-2C R/B 3.7 14:49:16 10° SE 14:54:04 35° ENE 14:59:06 10° N
H-2A R/B 3.1 14:53:43 10° ESE 14:57:34 23° ENE 15:01:29 10° N
Cosmos 1025 Rocket 4.4 14:53:31 10° SW 14:57:36 40° WNW 15:01:44 10° N
Okean-O 3.8 14:56:03 10° ESE 14:59:28 22° ENE 15:02:54 10° NNE
H-2A R/B 3.0 14:56:27 10° S 15:00:25 63° WSW 15:04:35 10° NNW
SeaSat 1 4.1 14:57:05 10° NNE 15:01:19 29° NW 15:05:33 10° WSW
Cosmos 773 Rocket 3.9 14:56:14 10° NNW 15:01:25 74° ENE 15:06:32 10° SSE
CZ-4B R/B 3.4 14:56:29 10° SSE 15:02:01 82° WSW 15:07:42 10° NNW
Okean O Rocket 1.7 14:57:54 10° SSE 15:02:21 90° SSW 15:06:49 10° NNW
SL-24 R/B 4.3 14:58:08 10° SSE 15:02:28 81° WSW 15:07:08 10° NNW
SMAP 3.5 14:58:46 10° S 15:03:23 69° WSW 15:08:03 10° NNW
CZ-4B R/B 2.2 15:03:04 10° NNE 15:06:10 32° E 15:09:10 10° SSE
Cosmos 1626 2.6 15:04:38 10° SSW 15:08:18 62° W 15:11:59 10° N
Cosmos 1603 4.4 15:03:05 10° NNW 15:08:43 61° WSW 15:14:21 10° S
Cosmos 2297 Rocket 4.3 15:04:47 10° W 15:08:45 19° NW 15:12:45 10° N
Meteor 2-10 Rocket 3.8 15:04:42 10° N 15:10:05 47° ENE 15:15:13 10° SE
OPS 8737 4.4 15:07:09 10° NW 15:10:14 62° NE 15:14:09 10° SE
USA 234 3.9 15:05:38 11° ENE 15:11:24 43° N 15:17:30 10° WNW
Cosmos 1689 Rocket 4.3 15:16:17 11° ESE 15:16:17 11° ESE 15:16:40 10° ESE
Aureole 2 Rocket 3.6 15:13:57 10° SSE 15:16:07 18° ESE 15:16:36 18° E
Cosmos 1606 Rocket 3.6 15:14:58 10° N 15:19:23 87° W 15:23:48 10° S
ATLAS 5 CENTAUR R/B 1.7 15:16:17 10° SW 15:20:19 69° NW 15:24:33 12° NE
H-2A R/B 2.4 15:16:15 10° N 15:20:44 72° WNW 15:25:05 10° SSW
ATLAS 3B R/B 4.1 15:14:39 10° NW 15:21:09 43° WSW 15:27:52 10° S
CZ-2D R/B 3.3 15:17:29 10° SSE 15:21:15 54° ENE 15:25:01 10° N
YAOGAN 1 3.2 15:18:14 10° SE 15:22:05 32° ENE 15:25:57 10° N
Cosmos 1892 Rocket 3.6 15:18:24 10° S 15:22:38 53° E 15:26:52 10° NNE
MOS 1 Rocket 3.4 15:23:52 10° NNE 15:27:59 41° E 15:32:01 10° SSE
Helios 1A Rocket 3.7 15:25:15 10° SE 15:28:52 30° ENE 15:32:30 10° N
Cosmos 2180 Rocket 4.5 15:22:37 10° N 15:29:03 78° E 15:35:27 10° SSE
SL-14 R/B 4.2 15:26:09 10° SSW 15:29:54 48° WNW 15:33:44 10° N
CZ-4C R/B 3.4 15:25:25 10° W 15:30:20 37° NNW 15:36:07 10° NE
RESURS DK-1 3.8 15:27:43 10° WSW 15:31:31 34° NW 15:35:20 10° NNE
Cosmos 2228 3.7 15:27:26 10° NNW 15:31:38 58° W 15:35:50 10° S
Meteor 2-5 Rocket 4.1 15:26:15 10° SSW 15:31:46 65° WNW 15:37:18 10° N
Nadezhda 4 Rocket 4.2 15:27:58 10° SSE 15:33:54 48° E 15:39:49 10° NNE
Aureole 3 3.5 15:30:58 10° N 15:34:18 32° ENE 15:37:11 10° SE
Cosmos 1538 Rocket 3.9 15:29:41 10° NNW 15:34:53 81° ENE 15:40:03 10° SSE
SKYMED 2 3.5 15:31:40 10° NNE 15:36:01 66° ESE 15:40:19 10° S
Cosmos 1777 Rocket 3.9 15:34:57 10° SSW 15:40:12 81° ESE 15:45:32 10° NNE
SJ 16-02 2.0 15:36:13 10° SSE 15:40:13 34° ESE 15:41:54 25° ENE
Cosmos 2263 Rocket 2.9 15:35:20 10° SW 15:40:52 52° NW 15:46:25 10° NNE
BREEZE-M DEB (TANK) 1.7 15:39:02 10° W 15:41:19 65° N 15:41:43 49° NE
COSMOS 2406 4.3 15:45:03 10° N 15:49:46 25° NE 15:50:36 24° ENE
Cosmos 2058 Rocket 3.1 15:46:10 10° N 15:50:41 84° W 15:55:11 10° S
Cosmos 1455 2.1 15:47:22 10° N 15:51:09 58° ENE 15:54:54 10° SSE
Meteor 2-13 Rocket 4.4 15:46:51 10° S 15:52:51 62° E 15:58:55 10° NNE
NOSS 3-1 (C) 4.2 15:47:35 10° NW 15:54:32 50° NE 15:59:43 23° ESE
ARGOS 3.3 15:50:58 10° SE 15:56:07 49° ENE 16:01:17 10° N
X-37B 2.4 15:58:35 10° SSW 16:00:57 21° SSE 16:00:57 21° SSE
Lacrosse 5 1.8 15:57:44 10° NW 16:02:49 88° SW 16:05:44 26° SE
Okean 1-7 Rocket 3.6 15:59:21 10° S 16:03:53 88° W 16:08:30 10° N
CZ-2C R/B 3.4 16:04:20 32° E 16:04:20 32° E 16:09:03 10° SSE
CSL-04 Debris 4.1 16:00:41 10° SSE 16:05:58 60° ENE 16:11:17 10° N
COSMOS 2455 2.8 16:00:42 10° SSW 16:06:44 88° NW 16:10:52 22° NNE
ERS-2 2.0 16:07:29 29° NNE 16:09:17 85° WNW 16:12:54 10° SSW
USA 281 4.4 16:09:49 21° NE 16:09:49 21° NE 16:14:27 10° N
PSLV R/B 3.8 16:07:08 22° NNE 16:09:51 78° ESE 16:14:04 10° S
CREW DRAGON DEMO-1 DEB 3.3 16:08:03 10° WNW 16:10:24 54° WNW 16:10:24 54° WNW
Cosmos 2026 Rocket 4.2 16:05:19 10° SSE 16:11:01 43° E 16:16:50 10° NNE
USA 229 DEB 4.1 16:04:31 10° NW 16:11:26 48° NE 16:14:20 33° E
USA 229 4.2 16:04:37 10° NW 16:11:31 47° NE 16:14:23 33° E
ISS -2.8 16:09:21 10° SW 16:12:02 38° S 16:12:02 38° S
Cosmos 1844 3.7 16:07:21 10° S 16:12:53 59° ESE 16:15:14 34° NE
Cosmos 1833 Rocket 3.6 16:08:29 10° NNW 16:12:57 29° NE 16:12:57 29° NE
Cosmos 2082 Rocket 3.7 16:10:44 10° N 16:14:04 20° NNE 16:14:04 20° NNE
Cosmos 1626 Rocket 3.4 16:11:06 10° S 16:15:25 67° E 16:16:49 41° NNE
Cosmos 990 Rocket 4.4 16:11:39 10° S 16:16:10 40° ESE 16:16:10 40° ESE
USA 267 4.0 16:16:51 30° ESE 16:17:47 31° SE 16:23:29 10° S
CZ-4 R/B 2.0 16:17:00 10° S 16:21:02 56° W 16:25:02 10° NNW
COSMO-SKYMED 1 3.8 16:19:57 10° N 16:24:03 42° WNW 16:28:08 10° SW
DMSP B5D1-3 4.4 16:21:09 25° NNE 16:24:08 71° ESE 16:29:13 10° S
SL-08 RB Rocket 3.9 16:27:10 50° NNE 16:27:10 50° NNE 16:30:47 10° N
NOSS 3-1 (A) 4.2 16:20:03 10° NW 16:27:02 51° NE 16:29:28 40° E
ATLAS 2AS CENTAUR R/B 4.2 16:26:37 10° W 16:33:34 32° NNW 16:38:05 19° NNE
Cosmos 1844 Rocket 2.7 16:29:27 10° SSW 16:35:08 81° WNW 16:37:42 34° NNE
Okean-O 3.6 16:31:23 10° S 16:35:40 47° W 16:39:59 10° NNW
Cosmos 2195 Rocket 4.4 16:30:15 10° S 16:36:33 78° E 16:42:55 10° NNE
Cosmos 923 Rocket 4.3 16:31:14 10° NNW 16:36:34 70° WSW 16:41:50 10° SSE
H-2A R/B 2.5 16:31:42 10° S 16:36:35 58° W 16:41:39 10° NNW
Meteor 1-21 Rocket 4.2 16:31:13 10° SSW 16:36:44 78° WNW 16:42:20 10° N
CZ-4B R/B 4.1 16:35:43 10° NNW 16:38:09 19° WNW 16:40:34 10° WSW
Meteor 2-8 Rocket 4.3 16:32:18 10° N 16:38:25 84° E 16:44:32 10° S
Meteor 2-15 4.4 16:33:01 10° N 16:39:09 62° ENE 16:40:31 50° SE
Cosmos 2344 4.2 16:34:18 10° NW 16:43:18 71° NE 16:49:29 33° ESE
Cosmos 1680 Rocket 3.5 16:38:45 10° NNW 16:44:01 78° WSW 16:46:09 37° S
Cosmos 1898 Rocket 4.0 16:39:34 10° S 16:43:21 44° SSE 16:43:21 44° SSE
Cosmos 1627 Rocket 4.3 16:40:07 10° S 16:46:18 81° E 16:52:34 10° N
Cosmos 1428 Rocket 4.4 16:45:13 10° S 16:51:29 83° E 16:57:51 10° N
Cosmos 2098 Rocket 4.2 16:44:53 10° S 16:51:56 73° E 16:59:22 10° NNE
Cosmos 1818 3.7 16:47:56 10° SW 16:53:21 69° NW 16:54:11 59° N
USA 234 3.2 16:52:59 58° ENE 16:53:51 63° NNE 17:00:19 10° NW
Cosmos 1602 Rocket 4.4 16:51:12 10° SSW 16:54:20 45° SW 16:54:20 45° SW
CSL-04 Rocket 4.2 16:52:06 10° S 16:57:24 59° WSW 17:02:50 10° NNW
YAOGAN 1 4.5 16:54:23 10° SSW 16:58:11 29° W 17:02:00 10° NW
Cosmos 1092 Rocket 4.2 16:55:23 10° SSW 17:01:33 66° WNW 17:07:42 10° N
ATLAS 5 CENTAUR R/B 3.7 17:02:38 10° WNW 17:05:52 20° NNW 17:06:05 20° NNW
Iridium 4 Rocket 4.2 17:00:49 10° N 17:06:28 58° W 17:11:39 10° SSW
SJ 16-02 3.1 17:14:58 10° WSW 17:18:49 29° WNW 17:18:57 29° NW
CZ-3B R/B 3.3 17:17:16 10° WNW 17:20:09 49° SW 17:20:09 49° SW
CZ-4C R/B 4.1 17:16:12 10° NW 17:20:46 22° N 17:21:18 22° N
COSMOS 2406 4.2 17:28:55 10° NNW 17:32:43 42° NW 17:32:43 42° NW
CZ-2C R/B 3.9 17:45:49 38° WSW 17:45:49 38° WSW 17:49:48 10° SW
Lacrosse 5 4.0 17:41:33 10° WNW 17:45:00 20° WSW 17:45:00 20° WSW
NOSS 3-1 (C) 4.5 17:38:24 10° NW 17:45:46 58° WSW 17:47:11 52° SSW
USA 281 4.5 17:56:41 31° NNW 17:56:41 31° NNW 17:59:54 10° NNW
Cosmos 1833 Rocket 4.4 17:52:08 10° NW 17:54:41 27° NW 17:54:41 27° NW
Cosmos 2082 Rocket 4.2 17:54:10 10° NNW 17:55:55 21° NNW 17:55:55 21° NNW
USA 267 4.3 18:04:13 37° WSW 18:04:13 37° WSW 18:07:53 10° WSW
USA 229 DEB 4.4 17:55:32 10° NW 18:01:49 55° W 18:01:49 55° W
USA 229 4.4 17:55:38 10° NW 18:01:52 55° W 18:01:52 55° W
